Flag for U.S.A. Weather past 2 weeks in Mansfield, Texas, U.S.A.

Now
38 °F

Clear.


Feels Like: 35 °F
Forecast: 27 / 56 °F
Wind: 3 mph from South

Location: Burleson-Rendon

Current Time: Mar 6, 2015 at 11:09:00 PM

Latest Report: Mar 6, 2015 at 10:35 PM


Visibility: 10 mi

Pressure: 30.48 "Hg

Humidity: 68%

Dew point: 28 °F

Location of MansfieldLocation

Historic Weather in Mansfield — Graph

°F

Mansfield temperature yesterday

Maximum temperature yesterday: 39 °F (at 3:46 PM)
Minimum temperature yesterday: 25 °F (at 6:49 AM)
Average temperature yesterday: 29 °F

Past Weeks' High & Low Weather Summary

 TemperatureHumidityPressure
High70 °F (Feb 20, 1:50 PM)100% (Feb 25, 9:49 AM)30.64 "Hg (Feb 25, 9:49 AM)
Low21 °F (Mar 6, 6:48 AM)30% (Mar 6, 2:48 PM)29.69 "Hg (Feb 20, 8:35 PM)
Average38 °F85%30.22 "Hg
* Reported Feb 19 10:15 PM — Mar 6 10:15 PM, Mansfield, Weather by CustomWeather, © 2015

Note: Actual official high and low records may vary slightly from our data, if they occured in-between our weather recording intervals... More about our weather records

Advertising

Mansfield weather history for previous 24 hours

 ConditionsComfort  
Time TempWeatherWind HumidityBarometerVisibility
10:15 PM
Fri, Mar 6
37 °FClear.No wind69%30.48 "Hg10 mi
9:55 PM38 °FClear.3 mph68%30.48 "Hg10 mi
9:15 PM40 °FClear.6 mph67%30.48 "Hg10 mi
8:55 PM40 °FClear.6 mph68%30.48 "Hg10 mi
8:35 PM40 °FClear.6 mph65%30.48 "Hg10 mi
8:15 PM40 °FClear.5 mph67%30.47 "Hg10 mi
7:55 PM41 °FClear.5 mph65%30.46 "Hg10 mi
7:15 PM43 °FClear.5 mph60%30.45 "Hg10 mi
6:52 PM45 °FClear.5 mph57%30.45 "Hg20 mi
4:52 PM52 °FSunny.No wind32%30.46 "Hg20 mi
3:45 PM52 °FSunny.No wind30%30.48 "Hg20 mi
2:48 PM52 °FSunny.3 mph30%30.49 "Hg20 mi
1:48 PM52 °FSunny.8 mph35%30.52 "Hg20 mi
12:47 PM48 °FSunny.9 mph37%30.57 "Hg20 mi
11:49 AM46 °FSunny.5 mph34%30.59 "Hg20 mi
10:47 AM43 °FSunny.No wind39%30.61 "Hg20 mi
9:49 AM41 °FSunny.7 mph45%30.61 "Hg20 mi
8:48 AM36 °FSunny.6 mph65%30.60 "Hg20 mi
7:47 AM25 °FSunny.No wind93%30.60 "Hg20 mi
6:48 AM21 °FClear.No wind93%30.59 "Hg20 mi
6:15 AM22 °FClear.No wind94%30.59 "Hg7 mi
5:55 AM22 °FClear.No wind94%30.59 "Hg7 mi
5:35 AM22 °FClear.No wind93%30.58 "Hg7 mi
5:15 AM22 °FClear.No wind93%30.58 "Hg7 mi
4:55 AM24 °FClear.No wind94%30.58 "Hg10 mi
4:35 AM22 °FClear.No wind93%30.58 "Hg7 mi
4:15 AM23 °FClear.No wind94%30.57 "Hg10 mi
3:55 AM23 °FClear.No wind93%30.57 "Hg7 mi
3:35 AM24 °FClear.No wind93%30.58 "Hg10 mi
3:15 AM23 °FClear.No wind93%30.58 "Hg7 mi
2:55 AM24 °FClear.No wind93%30.58 "Hg10 mi
2:35 AM24 °FClear.No wind92%30.59 "Hg7 mi
2:15 AM24 °FClear.No wind91%30.59 "Hg10 mi
1:55 AM24 °FClear.No wind89%30.60 "Hg10 mi
1:35 AM26 °FClear.No wind85%30.60 "Hg10 mi
1:15 AM25 °FClear.3 mph90%30.60 "Hg10 mi
12:55 AM25 °FClear.5 mph92%30.61 "Hg10 mi
12:35 AM26 °FClear.No wind92%30.61 "Hg7 mi
12:15 AM26 °FClear.No wind91%30.61 "Hg7 mi
11:55 PM
Thu, Mar 5
26 °FClear.No wind94%30.61 "Hg7 mi
11:35 PM25 °FClear.No wind94%30.61 "Hg7 mi
11:15 PM26 °FClear.No wind92%30.61 "Hg7 mi
Weather by CustomWeather, © 2015

See weather overviewHow to use our weather pages